Skip Page Navigation
NASA JPL Caltech
NASA Logo - Jet Propulsion Laboratory + View the NASA Portal
+ Near-Earth Object (NEO) Program
Search JPL
JPL Home Earth Solar System Stars & Galaxies Technology
JPL Solar System Dynamics
BODIES ORBITS EPHEMERIDES TOOLS PHYSICAL DATA DISCOVERY FAQ SITE MAP
JPL Small-Body Database Browser
Search: [ help ]  
281P/MOSS (2013 CE31)
Classification: Jupiter-family Comet          SPK-ID: 1003234
Ephemeris | Orbit Diagram | Orbital Elements | Physical Parameters | Close-Approach Data ]

[ show orbit diagram ]
Orbital Elements at Epoch 2455430.5 (2010-Aug-22.0) TDB
Reference: JPL 8 (heliocentric ecliptic J2000)
 Element Value Uncertainty (1-sigma)   Units 
e .1735992632445854 1.5385e-06  
a 4.862122736398097 1.6684e-05 AU
q 4.01806181155464 1.1271e-05 AU
i 4.721106589976782 7.2616e-05 deg
node 87.1868630886064 0.0013107 deg
peri 26.0146013186136 0.025349 deg
M 302.391100466627 0.018554 deg
tp 2456057.149044655450
(2012-May-09.64904466)
0.20505 JED
period 3915.951491926605
10.72
0.020156
5.518e-05
d
yr
n .09193168014011428 4.7319e-07 deg/d
Q 5.706183661241555 1.9581e-05 AU
  Orbit Determination Parameters
   # obs. used (total)      98  
   data-arc span      4550 days (12.46 yr)  
   first obs. used      2000-11-17  
   last obs. used      2013-05-03  
   planetary ephem.      DE405  
   SB-pert. ephem.      SB405-CPV-2  
   condition code      3  
   fit RMS      .62434  
   data source      ORB  
   producer      Otto Matic  
   solution date      2013-Jun-26 16:19:28  

Additional Information
 Earth MOID = 3.0367 AU 
 T_jup = 2.968 
[ show covariance matrix ]

Ephemeris | Orbit Diagram | Orbital Elements | Physical Parameters | Close-Approach Data ]

Physical Parameter Table
Parameter Symbol Value Units Sigma Reference Notes
comet total magnitude M1 11.3 mag 0.6 8 from 56 observations, assumed slope, autocmod 2.5c
comet total magnitude slope K1 10.   n/a 8 autocmod 2.5c
comet nuclear magnitude M2 14.4 mag 0.6 8 from 40 observations, autocmod 2.5c
comet nuclear magnitude slope K2 5.   n/a 8 autocmod 2.5c
comet nuclear phase coefficient PC 0.03   n/a 8 autocmod 2.5c

[ show close-approach data ]
Alternate Designations
 Perihelion 
Year
(est.)
 New-Style 
Desig
Roman
 Numeral 
Year/
 Letter 
 2012.4   281P/2013 CE31       
Ephemeris | Orbit Diagram | Orbital Elements | Physical Parameters | Close-Approach Data ]
ABOUT SSD CREDITS/AWARDS PRIVACY/COPYRIGHT GLOSSARY LINKS
FirstGov 2014-Apr-18 15:51 UT
(server date/time)  
NASA Home Page
Site Manager:   Donald K. Yeomans
Webmaster  Alan B. Chamberlin